Tracking 28794 objects as of 22-Apr-2024
HD Live streaming from Space Station
objects crossing your sky now

SL-14 R/B

Track SL-14 R/B now!
10-day predictions


NORAD ID: 14552
Int'l Code: 1983-122B
Perigee: 610.4 km
Apogee: 633.8 km
Inclination: 82.5 °
Period: 97.0 minutes
Semi major axis: 6993 km
RCS: 4.6828 m2 (large)
Launch date: December 15, 1983
Source: Commonwealth of Independent States (former USSR) (CIS)
Launch site: PLESETSK MISSILE AND SPACE COMPLEX (PKMTR)

Note: This is a ROCKET BODY
Your satellite tracking list
Your tracking list is empty




NASA's NSSDC Master Catalog

Two Line Element Set (TLE):
1 14552U 83122B   24112.86575518  .00001988  00000-0  23236-3 0  9993
2 14552  82.5223 254.6286 0016727 185.9041 174.1980 14.84559418158884
Source of the keplerian elements: AFSPC